ATLAS 5 CENTAUR DEB, 46852

Orbit data source: Space-Track

ATLAS 5 CENTAUR DEB, 46852 is space debris in HEO originally from a launch on Wed, 17 Oct 2018 UTC launched from the Air Force Eastern Test Range (AFETR). Debris objects in space refer to the collection of defunct objects orbiting the Earth. Examples of debris include non-operational satellites, rocket bodies, and fragments generated from explosions, collisions, or faulty payload assembly.

Loading next visibility...
Identifier
46852, 2018-079DH
Orbit
HEO
Country
Flag of USUS
Related business
Flag of USUnited Launch Alliance/Lockheed Martin (US)
Manufacturer
ULA Decatur
Mission
Spacecraft
Bus & Motor
Unknown
Mass
Unknown
Launch date (UTC)
2018-10-17 (7 years ago)
Launch vehicle
Unknown
Launch site
Air Force Eastern Test Range (AFETR)
Object type
Payload
Rocket body
Debris
Shape & HBR
Unknown shape, 1.1 m
Radar Cross Section
RCS unknown

Expand to show TLE details & history
Last TLE update: 5 months ago

TLE from 5 months ago
0 ATLAS 5 CENTAUR DEB
1 46852U 18079DH  25253.81362625 -.00000147  00000-0  00000-0 0  9993
2 46852  13.8579  49.1211 4837921 283.5626  28.7081  1.80606431 20753
Epoch: 2025-09-10T19:31Z
TLE epoch observation values (Epoch: 2025-09-10T19:31:37.307Z)
Latitude
-0.00004°
Longitude
126.18525°
Altitude
13,183.385 km
Speed
5.173 km/s
True Right ascension
03h 16m 42s
True Declination
0° 00' 00"
Sunlit
Object was in daylight at epoch
Visualization orbit readout
Latitude
Unknown
Longitude
Unknown
Altitude
Unknown
Speed
Unknown
Apparent Right ascension
Unknown
Apparent Declination
Unknown
Sunlit
N/A
Visualization observer readout
Local Sidereal Time
19:32:19
Azimuth
Unknown
Elevation
Unknown
Doppler factor
Unknown
Orbital elements
Apogee altitude
35,887.281 km
Perigee altitude
8,325.906 km
Semi-major axis
28,484.73 km
Eccentricity
0.48379
Inclination
13.8579°
RAAN
49.1211°
Arg. of periapsis
283.5626°
True anomaly
76.552°
Mean anomaly
28.7081°
Eccentric anomaly
49.91619°
Mean motion
0.45147 °/min
Orbital period
797.4 mins
BSTAR
0
Loading maneuver chart data...
Computing Atmospheric mass density...

Documentation

Showing up to 5 results
|